Time,TemperatureF,DewpointF,PressureIn,WindDirection,WindDirectionDegrees,WindSpeedMPH,WindSpeedGustMPH,Humidity,HourlyPrecipIn,Conditions,Clouds,dailyrainin,SoftwareType,DateUTC
2013-02-13 00:02:00,28.0,25.0,29.95,SSW,208,0.0,0.0,88,0.00,,,0.00,,2013-02-13 06:02:00,
2013-02-13 00:11:00,27.0,24.0,29.95,SSW,208,0.0,0.0,87,0.00,,,0.00,,2013-02-13 06:11:00,
2013-02-13 00:21:00,27.0,24.0,29.95,SSW,208,0.0,0.0,87,0.00,,,0.00,,2013-02-13 06:21:00,
2013-02-13 00:32:00,27.0,24.0,29.95,SSW,208,0.0,0.0,88,0.00,,,0.00,,2013-02-13 06:32:00,
2013-02-13 00:42:00,27.0,24.0,29.94,SSW,208,0.0,0.0,88,0.00,,,0.00,,2013-02-13 06:42:00,
2013-02-13 00:52:00,27.0,24.0,29.94,SSW,208,0.0,0.0,88,0.00,,,0.00,,2013-02-13 06:52:00,
2013-02-13 01:02:00,27.0,24.0,29.94,SSW,208,0.0,0.0,89,0.00,,,0.00,,2013-02-13 07:02:00,
2013-02-13 01:11:00,27.0,24.0,29.94,SSW,208,0.0,0.0,89,0.00,,,0.00,,2013-02-13 07:11:00,
2013-02-13 01:21:00,27.0,24.0,29.94,SSW,208,0.0,0.0,89,0.00,,,0.00,,2013-02-13 07:21:00,
2013-02-13 01:31:00,27.0,24.0,29.93,SSW,208,0.0,0.0,89,0.00,,,0.00,,2013-02-13 07:31:00,
2013-02-13 01:41:00,27.0,24.0,29.93,SSW,208,0.0,0.0,89,0.00,,,0.00,,2013-02-13 07:41:00,
2013-02-13 01:52:00,27.0,24.0,29.93,SSW,208,0.0,0.0,89,0.00,,,0.00,,2013-02-13 07:52:00,
2013-02-13 02:01:00,27.0,24.0,29.92,SSW,208,0.0,0.0,89,0.00,,,0.00,,2013-02-13 08:01:00,
2013-02-13 02:11:00,26.0,23.0,29.91,SSW,208,0.0,0.0,89,0.00,,,0.00,,2013-02-13 08:11:00,
2013-02-13 02:21:00,26.0,23.0,29.91,SSW,208,0.0,0.0,89,0.00,,,0.00,,2013-02-13 08:21:00,
2013-02-13 02:31:00,26.0,23.0,29.91,SSW,208,0.0,0.0,89,0.00,,,0.00,,2013-02-13 08:31:00,
2013-02-13 02:43:00,26.0,23.0,29.91,SSW,208,0.0,0.0,89,0.00,,,0.00,,2013-02-13 08:43:00,
2013-02-13 02:52:00,27.0,24.0,29.90,SSW,208,0.0,0.0,89,0.00,,,0.00,,2013-02-13 08:52:00,
2013-02-13 03:01:00,27.0,24.0,29.90,SSW,208,0.0,0.0,89,0.00,,,0.00,,2013-02-13 09:01:00,
2013-02-13 03:11:00,27.0,24.0,29.90,SSW,208,0.0,0.0,89,0.00,,,0.00,,2013-02-13 09:11:00,
2013-02-13 03:21:00,26.0,23.0,29.89,SSW,208,0.0,0.0,89,0.00,,,0.00,,2013-02-13 09:21:00,
2013-02-13 03:31:00,26.0,23.0,29.89,SSW,208,0.0,0.0,89,0.00,,,0.00,,2013-02-13 09:31:00,
2013-02-13 03:41:00,26.0,23.0,29.89,SSW,208,0.0,0.0,89,0.00,,,0.00,,2013-02-13 09:41:00,
2013-02-13 03:52:00,26.0,23.0,29.89,SSW,208,0.0,0.0,89,0.00,,,0.00,,2013-02-13 09:52:00,
2013-02-13 04:01:00,26.0,23.0,29.88,SSW,208,0.0,0.0,89,0.00,,,0.00,,2013-02-13 10:01:00,
2013-02-13 04:11:00,26.0,23.0,29.88,SSW,208,0.0,0.0,89,0.00,,,0.00,,2013-02-13 10:11:00,
2013-02-13 04:21:00,26.0,23.0,29.88,SSW,208,0.0,0.0,89,0.00,,,0.00,,2013-02-13 10:21:00,
2013-02-13 04:32:00,26.0,23.0,29.88,SSW,208,0.0,0.0,89,0.00,,,0.00,,2013-02-13 10:32:00,
2013-02-13 04:41:00,25.0,22.0,29.87,SSW,208,0.0,0.0,89,0.00,,,0.00,,2013-02-13 10:41:00,
2013-02-13 04:52:00,25.0,22.0,29.87,SSW,208,0.0,0.0,89,0.00,,,0.00,,2013-02-13 10:52:00,
2013-02-13 05:01:00,25.0,22.0,29.86,SSW,208,0.0,0.0,89,0.00,,,0.00,,2013-02-13 11:01:00,
2013-02-13 05:11:00,25.0,22.0,29.86,SSW,208,0.0,0.0,89,0.00,,,0.00,,2013-02-13 11:11:00,
2013-02-13 05:22:00,25.0,22.0,29.86,SSW,208,0.0,0.0,89,0.00,,,0.00,,2013-02-13 11:22:00,
2013-02-13 05:32:00,25.0,22.0,29.85,SSW,208,0.0,0.0,89,0.00,,,0.00,,2013-02-13 11:32:00,
2013-02-13 05:42:00,25.0,22.0,29.85,SSW,208,0.0,0.0,89,0.00,,,0.00,,2013-02-13 11:42:00,
2013-02-13 05:52:00,25.0,22.0,29.85,SSW,208,0.0,0.0,89,0.00,,,0.00,,2013-02-13 11:52:00,
2013-02-13 06:02:00,25.0,22.0,29.85,SSW,208,0.0,0.0,89,0.00,,,0.00,,2013-02-13 12:02:00,
2013-02-13 06:11:00,25.0,22.0,29.85,SSW,208,0.0,0.0,89,0.00,,,0.00,,2013-02-13 12:11:00,
2013-02-13 06:21:00,25.0,22.0,29.85,SSW,208,0.0,0.0,89,0.00,,,0.00,,2013-02-13 12:21:00,
2013-02-13 06:32:00,25.0,22.0,29.84,SSW,208,0.0,0.0,89,0.00,,,0.00,,2013-02-13 12:32:00,
2013-02-13 06:42:00,25.0,22.0,29.84,SSW,208,0.0,0.0,89,0.00,,,0.00,,2013-02-13 12:42:00,
2013-02-13 06:52:00,25.0,22.0,29.84,SSW,208,0.0,0.0,89,0.00,,,0.00,,2013-02-13 12:52:00,
2013-02-13 07:02:00,25.0,22.0,29.84,SSW,208,0.0,0.0,89,0.00,,,0.00,,2013-02-13 13:02:00,
2013-02-13 07:11:00,24.0,21.0,29.85,SSW,208,0.0,0.0,89,0.00,,,0.00,,2013-02-13 13:11:00,
2013-02-13 07:21:00,24.0,21.0,29.85,SSW,208,0.0,0.0,89,0.00,,,0.00,,2013-02-13 13:21:00,
2013-02-13 07:32:00,24.0,21.0,29.85,SSW,208,0.0,0.0,89,0.00,,,0.00,,2013-02-13 13:32:00,
2013-02-13 07:41:00,25.0,22.0,29.85,SSW,208,0.0,0.0,89,0.00,,,0.00,,2013-02-13 13:41:00,
2013-02-13 07:52:00,25.0,22.0,29.85,SSW,208,0.0,0.0,89,0.00,,,0.00,,2013-02-13 13:52:00,
2013-02-13 08:01:00,28.0,25.0,29.85,SSW,208,0.0,0.0,90,0.00,,,0.00,,2013-02-13 14:01:00,
2013-02-13 08:11:00,30.0,27.0,29.85,SSW,208,0.0,0.0,90,0.00,,,0.00,,2013-02-13 14:11:00,
2013-02-13 08:21:00,30.0,27.0,29.85,SSW,208,0.0,0.0,90,0.00,,,0.00,,2013-02-13 14:21:00,
2013-02-13 08:31:00,31.0,28.0,29.85,SSW,208,0.0,0.0,90,0.00,,,0.00,,2013-02-13 14:31:00,
2013-02-13 08:41:00,34.0,31.0,29.85,South,188,0.0,0.0,89,0.00,,,0.00,,2013-02-13 14:41:00,
2013-02-13 08:52:00,34.0,31.0,29.85,South,188,0.0,0.0,89,0.00,,,0.00,,2013-02-13 14:52:00,
2013-02-13 09:01:00,34.0,31.0,29.85,South,188,0.0,0.0,88,0.00,,,0.00,,2013-02-13 15:01:00,
2013-02-13 09:11:00,36.0,32.0,29.85,South,186,0.0,0.0,84,0.00,,,0.00,,2013-02-13 15:11:00,
2013-02-13 09:21:00,36.0,32.0,29.85,South,186,0.0,0.0,84,0.00,,,0.00,,2013-02-13 15:21:00,
2013-02-13 09:32:00,38.0,33.0,29.84,South,186,0.0,0.0,81,0.00,,,0.00,,2013-02-13 15:32:00,
2013-02-13 09:42:00,38.0,33.0,29.84,South,186,0.0,0.0,81,0.00,,,0.00,,2013-02-13 15:42:00,
2013-02-13 09:52:00,39.0,31.0,29.84,South,186,0.0,0.0,74,0.00,,,0.00,,2013-02-13 15:52:00,
2013-02-13 10:01:00,40.0,31.0,29.84,South,190,0.0,0.0,70,0.00,,,0.00,,2013-02-13 16:01:00,
2013-02-13 10:11:00,41.0,31.0,29.85,SSW,193,0.0,0.0,68,0.00,,,0.00,,2013-02-13 16:11:00,
2013-02-13 10:21:00,41.0,31.0,29.85,SSW,193,0.0,0.0,68,0.00,,,0.00,,2013-02-13 16:21:00,
2013-02-13 10:31:00,41.0,30.0,29.85,SSW,194,0.0,0.0,64,0.00,,,0.00,,2013-02-13 16:31:00,
2013-02-13 10:42:00,41.0,30.0,29.85,SSW,194,0.0,0.0,64,0.00,,,0.00,,2013-02-13 16:42:00,
2013-02-13 10:52:00,42.0,31.0,29.84,WSW,241,0.0,0.0,64,0.00,,,0.00,,2013-02-13 16:52:00,
2013-02-13 11:01:00,42.0,30.0,29.84,SSW,209,0.0,0.0,63,0.00,,,0.00,,2013-02-13 17:01:00,
2013-02-13 11:11:00,42.0,30.0,29.84,SSW,209,0.0,0.0,63,0.00,,,0.00,,2013-02-13 17:11:00,
2013-02-13 11:21:00,44.0,32.0,29.84,South,186,0.0,0.0,62,0.00,,,0.00,,2013-02-13 17:21:00,
2013-02-13 11:31:00,44.0,31.0,29.83,SSW,204,0.0,0.0,60,0.00,,,0.00,,2013-02-13 17:31:00,
2013-02-13 11:41:00,44.0,31.0,29.83,SSW,204,0.0,0.0,60,0.00,,,0.00,,2013-02-13 17:41:00,
2013-02-13 11:52:00,45.0,31.0,29.83,SSW,206,0.0,0.0,58,0.00,,,0.00,,2013-02-13 17:52:00,
2013-02-13 12:01:00,46.0,31.0,29.83,South,184,0.0,0.0,56,0.00,,,0.00,,2013-02-13 18:01:00,
2013-02-13 12:11:00,47.0,33.0,29.81,SSW,201,0.0,0.0,57,0.00,,,0.00,,2013-02-13 18:11:00,
2013-02-13 12:22:00,47.0,33.0,29.81,SSW,201,0.0,0.0,57,0.00,,,0.00,,2013-02-13 18:22:00,
2013-02-13 12:32:00,47.0,31.0,29.81,SSW,205,0.0,0.0,54,0.00,,,0.00,,2013-02-13 18:32:00,
2013-02-13 12:41:00,47.0,31.0,29.81,SSW,205,0.0,0.0,54,0.00,,,0.00,,2013-02-13 18:41:00,
2013-02-13 12:52:00,48.0,30.0,29.80,SW,217,0.0,0.0,50,0.00,,,0.00,,2013-02-13 18:52:00,
2013-02-13 13:01:00,49.0,31.0,29.80,SW,223,0.0,0.0,50,0.00,,,0.00,,2013-02-13 19:01:00,
2013-02-13 13:11:00,49.0,31.0,29.79,SW,229,0.0,0.0,49,0.00,,,0.00,,2013-02-13 19:11:00,
2013-02-13 13:21:00,49.0,31.0,29.79,SW,229,0.0,0.0,49,0.00,,,0.00,,2013-02-13 19:21:00,
2013-02-13 13:31:00,50.0,32.0,29.79,SW,229,0.0,0.0,49,0.00,,,0.00,,2013-02-13 19:31:00,
2013-02-13 13:41:00,50.0,32.0,29.79,SW,229,0.0,0.0,49,0.00,,,0.00,,2013-02-13 19:41:00,
2013-02-13 13:52:00,50.0,31.0,29.78,SW,220,0.0,0.0,47,0.00,,,0.00,,2013-02-13 19:52:00,
2013-02-13 14:02:00,51.0,31.0,29.78,SW,217,0.0,0.0,46,0.00,,,0.00,,2013-02-13 20:02:00,
2013-02-13 14:11:00,52.0,30.0,29.78,SSW,211,0.0,0.0,42,0.00,,,0.00,,2013-02-13 20:11:00,
2013-02-13 14:21:00,52.0,30.0,29.78,SSW,211,0.0,0.0,42,0.00,,,0.00,,2013-02-13 20:21:00,
2013-02-13 14:31:00,51.0,28.0,29.78,SW,222,0.0,0.0,41,0.00,,,0.00,,2013-02-13 20:31:00,
2013-02-13 14:42:00,52.0,29.0,29.77,SSW,206,0.0,0.0,41,0.00,,,0.00,,2013-02-13 20:42:00,
2013-02-13 14:52:00,52.0,29.0,29.77,SSW,206,0.0,0.0,41,0.00,,,0.00,,2013-02-13 20:52:00,
2013-02-13 15:01:00,52.0,29.0,29.77,SW,218,0.0,0.0,41,0.00,,,0.00,,2013-02-13 21:01:00,
2013-02-13 15:11:00,52.0,29.0,29.77,SW,218,0.0,0.0,41,0.00,,,0.00,,2013-02-13 21:11:00,
2013-02-13 15:21:00,52.0,29.0,29.78,SW,217,0.0,0.0,41,0.00,,,0.00,,2013-02-13 21:21:00,
2013-02-13 15:31:00,52.0,30.0,29.78,NNE,19,0.0,0.0,42,0.00,,,0.00,,2013-02-13 21:31:00,
2013-02-13 15:42:00,51.0,29.0,29.78,West,278,0.0,0.0,43,0.00,,,0.00,,2013-02-13 21:42:00,
2013-02-13 15:52:00,51.0,29.0,29.78,West,278,0.0,0.0,43,0.00,,,0.00,,2013-02-13 21:52:00,
2013-02-13 16:02:00,51.0,29.0,29.78,West,267,0.0,0.0,43,0.00,,,0.00,,2013-02-13 22:02:00,
2013-02-13 16:11:00,49.0,29.0,29.79,SSE,148,0.0,0.0,45,0.00,,,0.00,,2013-02-13 22:11:00,
2013-02-13 16:21:00,49.0,29.0,29.79,SSE,148,0.0,0.0,45,0.00,,,0.00,,2013-02-13 22:21:00,
2013-02-13 16:31:00,48.0,29.0,29.79,SSE,162,0.0,0.0,48,0.00,,,0.00,,2013-02-13 22:31:00,
2013-02-13 16:42:00,48.0,29.0,29.79,SSE,162,0.0,0.0,48,0.00,,,0.00,,2013-02-13 22:42:00,
2013-02-13 16:52:00,47.0,30.0,29.79,West,277,0.0,0.0,52,0.00,,,0.00,,2013-02-13 22:52:00,
2013-02-13 17:01:00,46.0,30.0,29.79,SSW,207,0.0,0.0,53,0.00,,,0.00,,2013-02-13 23:01:00,
2013-02-13 17:11:00,45.0,31.0,29.80,SSW,205,0.0,0.0,57,0.00,,,0.00,,2013-02-13 23:11:00,
2013-02-13 17:21:00,45.0,31.0,29.80,SSW,205,0.0,0.0,57,0.00,,,0.00,,2013-02-13 23:21:00,
2013-02-13 17:32:00,45.0,31.0,29.80,SSW,205,0.0,0.0,57,0.00,,,0.00,,2013-02-13 23:32:00,
2013-02-13 17:42:00,45.0,31.0,29.80,SSW,205,0.0,0.0,57,0.00,,,0.00,,2013-02-13 23:42:00,
2013-02-13 17:52:00,45.0,31.0,29.80,SSW,205,0.0,0.0,57,0.00,,,0.00,,2013-02-13 23:52:00,
2013-02-13 18:01:00,45.0,31.0,29.80,SSW,205,0.0,0.0,57,0.00,,,0.00,,2013-02-14 00:01:00,
2013-02-13 19:01:00,37.0,30.0,29.81,SSW,205,0.0,0.0,75,0.00,,,0.00,,2013-02-14 01:01:00,
2013-02-13 19:11:00,37.0,30.0,29.81,SSW,205,0.0,0.0,75,0.00,,,0.00,,2013-02-14 01:11:00,
2013-02-13 19:21:00,36.0,30.0,29.81,SSW,205,0.0,0.0,78,0.00,,,0.00,,2013-02-14 01:21:00,
2013-02-13 19:31:00,35.0,29.0,29.82,SSW,205,0.0,0.0,79,0.00,,,0.00,,2013-02-14 01:31:00,
2013-02-13 19:41:00,35.0,29.0,29.82,SSW,205,0.0,0.0,79,0.00,,,0.00,,2013-02-14 01:41:00,
2013-02-13 19:52:00,34.0,29.0,29.82,SSW,205,0.0,0.0,81,0.00,,,0.00,,2013-02-14 01:52:00,
2013-02-13 20:01:00,34.0,29.0,29.82,SSW,205,0.0,0.0,82,0.00,,,0.00,,2013-02-14 02:01:00,
2013-02-13 20:11:00,33.0,28.0,29.81,SSW,205,0.0,0.0,83,0.00,,,0.00,,2013-02-14 02:11:00,
2013-02-13 20:21:00,33.0,28.0,29.81,SSW,205,0.0,0.0,83,0.00,,,0.00,,2013-02-14 02:21:00,
2013-02-13 20:31:00,32.0,28.0,29.81,SSW,205,0.0,0.0,84,0.00,,,0.00,,2013-02-14 02:31:00,
2013-02-13 20:41:00,32.0,28.0,29.81,SSW,205,0.0,0.0,84,0.00,,,0.00,,2013-02-14 02:41:00,
2013-02-13 20:52:00,32.0,28.0,29.81,SSW,205,0.0,0.0,84,0.00,,,0.00,,2013-02-14 02:52:00,
2013-02-13 21:02:00,32.0,28.0,29.81,SSW,205,0.0,0.0,85,0.00,,,0.00,,2013-02-14 03:02:00,
2013-02-13 21:11:00,31.0,27.0,29.82,SSW,205,0.0,0.0,86,0.00,,,0.00,,2013-02-14 03:11:00,
2013-02-13 21:21:00,31.0,27.0,29.82,SSW,205,0.0,0.0,86,0.00,,,0.00,,2013-02-14 03:21:00,
2013-02-13 21:31:00,31.0,27.0,29.82,SSW,205,0.0,0.0,86,0.00,,,0.00,,2013-02-14 03:31:00,
2013-02-13 21:42:00,31.0,27.0,29.82,SSW,205,0.0,0.0,86,0.00,,,0.00,,2013-02-14 03:42:00,
2013-02-13 21:52:00,31.0,27.0,29.81,SSW,205,0.0,0.0,86,0.00,,,0.00,,2013-02-14 03:52:00,
2013-02-13 22:01:00,31.0,28.0,29.81,SSW,205,0.0,0.0,87,0.00,,,0.00,,2013-02-14 04:01:00,
2013-02-13 22:11:00,31.0,28.0,29.81,SSW,205,0.0,0.0,87,0.00,,,0.00,,2013-02-14 04:11:00,
2013-02-13 22:21:00,31.0,28.0,29.81,SSW,205,0.0,0.0,87,0.00,,,0.00,,2013-02-14 04:21:00,
2013-02-13 22:31:00,31.0,28.0,29.81,SSW,205,0.0,0.0,87,0.00,,,0.00,,2013-02-14 04:31:00,
2013-02-13 22:41:00,31.0,28.0,29.81,SSW,205,0.0,0.0,87,0.00,,,0.00,,2013-02-14 04:41:00,
2013-02-13 22:52:00,31.0,28.0,29.80,SSW,205,0.0,0.0,87,0.00,,,0.00,,2013-02-14 04:52:00,
2013-02-13 23:01:00,32.0,29.0,29.80,SSW,205,0.0,0.0,87,0.00,,,0.00,,2013-02-14 05:01:00,
2013-02-13 23:11:00,32.0,29.0,29.80,SSW,205,0.0,0.0,87,0.00,,,0.00,,2013-02-14 05:11:00,
2013-02-13 23:21:00,32.0,29.0,29.80,SSW,205,0.0,0.0,87,0.00,,,0.00,,2013-02-14 05:21:00,
2013-02-13 23:31:00,32.0,29.0,29.80,SSW,205,0.0,0.0,87,0.00,,,0.00,,2013-02-14 05:31:00,
2013-02-13 23:41:00,32.0,29.0,29.80,SSW,205,0.0,0.0,87,0.00,,,0.00,,2013-02-14 05:41:00,
2013-02-13 23:52:00,32.0,29.0,29.80,SSW,205,0.0,0.0,87,0.00,,,0.00,,2013-02-14 05:52:00,